Current Version              Previous Version:    01  02  03  04  05  06  07  08  09  10  11  12  13  14  15  16  17  18  19  20  21  22  23  24  25  26  27  28  29  30  
   31  32  33  34  35  36  37  38  39  40  41  42  43  44  45  46  47  48  49  50  51  52  53  54  55  56  57  58  59  60  

[Printable]
923
ASUS44 KEWX 231702
RWRTX
SOUTH TEXAS REGIONAL WEATHER ROUNDUP
NATIONAL WEATHER SERVICE AUSTIN/SAN ANTONIO TX
1200 PM CDT THU OCT 23 2014

NOTE: "FAIR" INDICATED FEW OR NO CLOUDS BELOW 12,000 FEET WITH NO
SIGNIFICANT WEATHER AND/OR OBSTRUCTIONS TO VISIBILITY.

* - THESE STATIONS ARE NOT NWS OR FAA STATIONS...AND ARE NOT SUBJECT
    TO NWS AND FAA QUALITY CONTROL.

TXZ171-172-183>190-231800-
TEXAS HILL COUNTRY AND EDWARDS PLATEAU

CITY           SKY/WX    TMP DP  RH WIND       PRES   REMARKS
JUNCTION       CLOUDY    71  62  73 VRB6      30.18S
*LLANO         NOT AVBL
BURNET         PTSUNNY   74  60  61 CALM      30.19S
*HORSESHOE BAY CLOUDY    74  61  61 CALM      30.17S
*KERRVILLE     PTSUNNY   72  64  77 S5        30.19S
*FREDERICKSBRG CLOUDY    71  61  70 SW6       30.19R
*ROCKSPRINGS   CLOUDY    68  63  83 SE7       30.22S
*BOERNE STAGE  SUNNY     79  64  61 SE5       30.19R
*CASTROVILLE   SUNNY     78  56  45 N3        30.17S
HONDO          CLOUDY    73  59  61 VRB3      30.18R
*UVALDE        MOSUNNY   75  64  67 SE5       30.17S
DEL RIO        CLOUDY    71  66  84 SE7       30.16R
LAUGHLIN AFB   CLOUDY    70  66  88 SE6       30.16S
CARRIZO SPRGS  PTSUNNY   79  63  57 CALM      30.14R
$$

TXZ173-191>194-202-209-217>225-228-231800-
CENTRAL AND SOUTH CENTRAL TEXAS

CITY           SKY/WX    TMP DP  RH WIND       PRES   REMARKS
GEORGETOWN     NOT AVBL
AUSTIN/BERGSTM MOSUNNY   75  60  59 CALM      30.15S
AUSTIN/MABRY   MOSUNNY   77  61  57 CALM      30.16S
*AUSTIN/EXEC   MOSUNNY   73  59  60 E5        30.17R
*LAGO VISTA    MOSUNNY   75  60  60 CALM      30.18S
SAN MARCOS     SUNNY     73  61  64 MISG      30.17R
NEW BRAUNFELS  PTSUNNY   77  59  53 CALM      30.15R
RANDOLPH AFB   CLOUDY    76  58  53 E5        30.16R
PT SAN ANTONIO MOSUNNY   78  59  52 VRB1      30.14S
SAN ANTONIO    MOSUNNY   78  59  51 VRB3      30.16R
STINSON FIELD  MOSUNNY   77  57  50 SE3       30.14R
*PLEASANTON    SUNNY     78  59  53 CALM      30.16S
*LA GRANGE     MOSUNNY   73  60  63 E3        30.13F
*GIDDINGS      MOSUNNY   73  55  53 CALM      30.19S
*GONZALES      PTSUNNY   74  63  67 NE3       30.15S
$$

TXZ163>164-176>182-195>201-210>213-226-227-235-231800-
SOUTHEAST TEXAS

CITY           SKY/WX    TMP DP  RH WIND       PRES   REMARKS
COLLEGE STN    MOSUNNY   74  54  49 W3        30.16S
*BRYAN         MOSUNNY   70  56  61 CALM      30.18S
*CALDWELL      MOSUNNY   72  54  53 CALM      30.19S
*CROCKETT      MOSUNNY   73  55  53 N3        30.19F
*BRENHAM       MOSUNNY   75  53  45 S5        30.16S
HUNTSVILLE     MOSUNNY   72  52  49 E5        30.16S
CONROE         PTSUNNY   71  53  52 VRB3      30.16S
HOUSTON BUSH   CLOUDY    70  55  59 VRB3      30.15S
HOUSTON HOBBY  PTSUNNY   73  57  57 NE3       30.13F
*HOUSTON SW AP PTSUNNY   66  54  63 CALM      30.14S
PEARLAND       PTSUNNY   74  58  57 VRB3      30.14F
HOUSTON HOOKS  PTSUNNY   71  54  54 VRB6      30.15S
ELLINGTON FLD  PTSUNNY   73  59  60 NE3       30.14F
SUGAR LAND     PTSUNNY   74  55  51 NE5       30.14S
*HOUSTON EXEC  PTSUNNY   72 N/A N/A NE5       30.16S
*CLEVELAND MUN PTSUNNY   69  57  65 CALM      30.16F HAZE
*WHARTON       CLOUDY    73  59  62 NE3       30.14S
*COLUMBUS      FAIR      73  58  59 E5        30.14F
$$

TXZ214>216-236>238-231800-
THE UPPER TEXAS COAST

CITY           SKY/WX    TMP DP  RH WIND       PRES   REMARKS
*ORANGE        PTSUNNY   69  53  57 E5        30.15F
PORT ARTHUR    PTSUNNY   71  54  54 E5        30.13S
GALVESTON      MOSUNNY   73  65  75 N12       30.12F
ANGLETON       MOSUNNY   76  60  57 NE6       30.12F
*BAY CITY        N/A     77  60  56 NE3       30.12F
PALACIOS       CLOUDY    80  61  52 E7        30.11F
$$

TXZ229>234-239>247-231800-
TEXAS COASTAL BEND AND RIO GRANDE PLAINS

CITY           SKY/WX    TMP DP  RH WIND       PRES   REMARKS
VICTORIA       CLOUDY    74  61  63 NE6       30.13F
*BEEVILLE      CLOUDY    79  61  53 NE6       30.12F
ROCKPORT       SUNNY     80  62  54 NE9       30.11S
*PORT ARANSAS  CLOUDY    78  66  66 N12       30.11S
*PORT LAVACA   CLOUDY    76  63  62 NE9       30.12F
*INGLESIDE     NOT AVBL
CORPUS CHRISTI PTSUNNY   79  65  62 NE9       30.12R
CORPUS NAS     PTSUNNY   80  68  66 NE13      30.11S
*ROBSTOWN      HVY RAIN  78  65  65 NE8       30.12S
ALICE          SUNNY     79  63  57 NE3       30.12S
KINGSVILLE NAS PTSUNNY   78  66  66 NE8       30.11S
COTULLA        SUNNY     80  58  46 CALM      30.14S
*FAITH RANCH   MOSUNNY   77  63  61 S5        30.15R
LAREDO         PTSUNNY   79  64  59 E5        30.16S
$$

TXZ248>255-231800-
DEEP SOUTH TEXAS

CITY           SKY/WX    TMP DP  RH WIND       PRES   REMARKS
BROWNSVILLE    NOT AVBL
PORT ISABEL    PTSUNNY   81  66  60 N7        30.08S
*SOUTH PADRE     N/A    N/A N/A N/A N9        30.08S
HARLINGEN      PTSUNNY   81  68  64 N5        30.09S
*HEBBRONVILLE  PTSUNNY   74  62  67 N6        30.15S
MCALLEN        MOSUNNY   81  67  62 NE8       30.11S
*WESLACO       PTSUNNY   81  65  58 N7        30.10R HAZE
FALFURRIAS     SUNNY     78  65  63 N9        30.12R
EDINBURG       PTSUNNY   81  67  62 N6        30.12R
*ZAPATA        PTSUNNY   80  61  52 CALM      30.12S
$$

TXZ213>215-236>238-242>244-246-247-251-254-255-231800-
CMAN STATIONS

STATION/POSITION TIME  TEMP    WIND        PRES    WAVE
                       AIR SEA DIR/SP/G            HT/PER
                 (UTC) (F)     (DEG/KT/KT) (MB)    (FT/S)
SABINE PASS      1600   71 73   60/  2/  5 1020.4
SEA RIM ST PARK  1600   70      70/  5/  7 1020.6
NORTH JETTY/GLS  1600   71 74  100/ 11/ 13   N/A
EAGLE POINT      1600   68 74   60/  6/  7 1020.4
MORGANS POINT    1600   67     330/  2/  5 1020.5
MISSION/ARANSAS  1600           30/ 10     1021.0
PORT O`CONNOR    1600           30/ 11/ 12   N/A
PORT ARANSAS     1600   74 78   20/ 13/ 13 1020.0
MALAQUITE BEACH  1600   74 77   20/ 12/ 13 1019.1
BAFFIN BAY       1600   74 80   20/ 11/ 14 1019.7
PORT ISABEL      1600   78 79  340/  9/ 12 1018.6
$$

GMZ080-GMZ150>470-231800-
OFFSHORE BUOY REPORTS

STATION/POSITION TIME  TEMP    WIND        PRES    WAVE
                       AIR SEA DIR/SP/G            HT/PER
                 (UTC) (F)     (DEG/KT/KT) (MB)    (FT/S)
20 E GALVESTON   1700   72 78   50/  8/ 10 1019.6    3/ 6
90 E PT ARANSAS  1700   77 81   40/  8/ 12 1019.4    4/ 8
35 NE PT MANSFLD 1600   78 81   40/ 10/ 12 1018.2    4/ 8
200 E PT ISABEL  1600   79 81   60/ 14/ 17 1016.7    7/ 8
$$